Regional Weather Roundup
Issued by NWS Upton, NY

Home | Current Version | Previous Version | Text Only | Print | Product List | Glossary On
Versions: 1 2 3 4 5 6 7 8 9 10 11 12 13 14 15 16 17 18 19 20 21 22 23 24 25 26 27 28 29 30 31 32 33 34 35 36 37 38 39 40 41 42 43 44 45 46 47 48 49 50
000
ASUS41 KOKX 271205
RWROKX

REGIONAL WEATHER ROUNDUP
NATIONAL WEATHER SERVICE NEW YORK NY
700 AM EST THU NOV 27 2014

NOTE: "FAIR" INDICATES FEW OR NO CLOUDS BELOW 12,000 FEET WITH NO
SIGNIFICANT WEATHER AND/OR OBSTRUCTIONS TO VISIBILITY.

NYZ071-072-176-178-NJZ106-104-271300-
NEW YORK CITY METRO AREA


CITY           SKY/WX    TMP DP  RH WIND       PRES   REMARKS
CENTRAL PARK   CLOUDY    37  30  75 VRB3      29.98R
LAGUARDIA APRT CLOUDY    36  30  79 NW7       29.96R WCI  30
KENNEDY INTL   CLOUDY    38  30  73 NW9       29.97R WCI  31
NEWARK/LIBERTY FLURRIES  36  31  82 NW7       29.97R WCI  30
BRNX BOT. GARD   N/A     36  32  87 NW2       29.98R
TETERBORO      CLOUDY    36  31  82 CALM      29.96R
$$

NYZ177-179-078>081-271300-
LONG ISLAND NEW YORK

CITY           SKY/WX    TMP DP  RH WIND       PRES   REMARKS
FARMINGDALE    CLOUDY    37  29  72 NW7       29.95R WCI  32
ISLIP          CLOUDY    35  30  82 NW8       29.93R WCI  29
SHIRLEY        CLOUDY    35  31  85 W5        29.95R WCI  31
WESTHAMPTON    CLOUDY    36  32  85 W6        29.94R WCI  31
MONTAUK POINT    N/A     38  32  79 NW8       29.92R WCI  32
$$

NYZ052-065-067-271300-
HUDSON VALLEY

CITY           SKY/WX    TMP DP  RH WIND       PRES   REMARKS
WHITE PLAINS   CLOUDY    33  28  81 NW13      29.92R WCI  24
NEWBURGH       NOT AVBL
MONTGOMERY     MIX PCPN  31  30  96 CALM      29.94R FOG
POUGHKEEPSIE   CLOUDY    28  26  92 CALM      29.96R
ALBANY         CLOUDY    31  26  82 N6        29.97R WCI  25
$$

NJZ001-105-106-008-010-013-015-019>022-104-271300-
NEW JERSEY

CITY           SKY/WX    TMP DP  RH WIND       PRES   REMARKS
NEWARK/LIBERTY FLURRIES  36  31  82 NW7       29.97R WCI  30
TETERBORO      CLOUDY    36  31  82 CALM      29.96R
CALDWELL       CLOUDY    34  29  82 CALM      29.97R
MORRISTOWN     CLOUDY    36  32  87 CALM      29.97R
SOMERVILLE     CLOUDY    34  31  88 CALM      29.96R
SUSSEX         CLOUDY    32  28  85 SE3       29.95R
ANDOVER          N/A     31  31 100 CALM      29.95R
TRENTON        LGT SNOW  34  30  85 NW7       29.97R FOG     WCI  28
MILLVILLE      CLOUDY    33  31  92 W5        30.00R WCI  29
ATLANTIC CITY  CLOUDY    35  32  88 W9        30.00R WCI  28
WRIGHTSTOWN    CLOUDY    35  31  87 NW7       29.96R WCI  29
TOMS RIVER     CLOUDY    34  32  93 CALM      29.98R
BELMAR         CLOUDY    36  28  75 NW8       29.94F WCI  29
$$

PAZ047>061-062-071-271300-
EASTERN PENNSYLVANIA

CITY           SKY/WX    TMP DP  RH WIND       PRES   REMARKS
PHILADELPHIA   CLOUDY    36  30  80 NW5       30.01R WCI  32
ALLENTOWN      CLOUDY    34  28  80 W5        29.98R WCI  30
SCRANTON       FLURRIES  30  25  81 VRB6      29.96R WCI  24
$$

CTZ002-004>006-009-010-012-RIZ004-006-007-MAZ004-011-015-271300-
SOUTHERN NEW ENGLAND
 IN CT

CITY           SKY/WX    TMP DP  RH WIND       PRES   REMARKS
BRADLEY INTL   PTCLDY    32  26  78 NW6       29.89R WCI  26
HARTFORD       CLEAR     33  28  81 SW7       29.91R WCI  27
DANBURY        CLOUDY    31  24  75 NW6       29.94R WCI  25
WTRBRY/OXFORD  NOT AVBL
BRIDGEPORT     CLOUDY    34  29  82 NW8       29.94R WCI  27
MERIDEN        CLEAR     32  27  81 NW8       29.92R WCI  25
NEW HAVEN      CLOUDY    37  29  72 NW6       29.92R WCI  32
CHESTER        CLOUDY    34  30  86 NW6       29.89R WCI  29
GROTON         MOCLDY    33  31  92 NW7       29.90R WCI  27
WILLIMANTIC    PTCLDY    33  28  81 CALM      29.88S

 IN RI

CITY           SKY/WX    TMP DP  RH WIND       PRES   REMARKS
PROVIDENCE     PTCLDY    33  29  85 NW9       29.86R WCI  25
BLOCK ISLAND   MOCLDY    36  28  75 NW7       29.89R WCI  30
WESTERLY       CLEAR     32  30  92 W3        29.89R

 IN MA

CITY           SKY/WX    TMP DP  RH WIND       PRES   REMARKS
BOSTON         MOCLDY    35  31  85 NW10      29.85R WCI  27
WORCESTER      MOCLDY    29  27  92 NW12      29.82R WCI  19
WESTFIELD      PTCLDY    31  25  78 NW3       29.89R
PROVINCETOWN   CLOUDY    43  32  65 N21G30    29.80S
NANTUCKET      CLOUDY    39  33  79 NW20G25   29.83R WCI  29
$$

ANZ330-335-338-340-345-350-353-355-271300-
COASTAL MARINE OBSERVATIONS


STATION/POSITION TIME  SKY/WX   TEMP    WIND        PRES    VSBY  WAVE
                                AIR SEA DIR/SP/G                  HT/PER
                 (UTC)          (F)     (DEG/KT/KT) (MB)    (MI)  (FT/S)
NY HARB ENTRANCE 1100            40 55  310/ 14/ 19 1014.0          5/11
4S FIRE IS       1200               52                N/A           6/11
20S FIRE ISLAND  1200            40 54  310/ 14/ 16 1014.0          7/11
23SW MTP         1200                                 N/A           7/12
HUDSON CANYON    1100            44 58  310/ 14/ 17 1012.9         11/11
EXECUTION ROCKS  1200            37 48  310/  8/ 12   N/A
WESTERN LI SOUND 1200            37     330/ 12/ 17   N/A           1
CENTRAL LI SOUND 1100            37 50  300/ 12/ 14   N/A           2/ 3
EASTERN LI SOUND 1100            37 52  320/ 12/ 14   N/A
ROBBINS REEF     1200            36     310/ 11/ 12 1013.5
$$


>>>>>>>>>>>>>>>>>>>>>>>>>>>> KEY <<<<<<<<<<<<<<<<<<<<<<<<<<<
>                                                          <
>     SKY/WX - SKY CONDITION/PRESENT WEATHER               <
>     TMP    - TEMPERATURE IN FAHRENHEIT                   <
>     DP     - DEWPOINT IN FAHRENHEIT                      <
>     RH     - RELATIVE HUMIDITY IN PERCENT                <
>     WIND   - DIRECTION AND SPEED IN MPH                  <
>     PRES   - MEAN SEA LEVEL PRESSURE IN INCHES OF HG     <
>     WCI    - WIND CHILL INDEX                            <
>     VSB    - VISIBILITY IN MILES                         <
>     HX     - HEAT INDEX                                  <
>     TC     - TEMPERATURE IN CELSIUS                      <
>     VRB    - VARIABLE WIND DIRECTION                     <
>                                                          <
>>>>>>>>>>>>>>>>>>>>>>>>>>>> KEY <<<<<<<<<<<<<<<<<<<<<<<<<<<





USA.gov is the U.S. government's official web portal to all federal, state and local government web resources and services.